STARLINK-32404, 61710

Orbit data source: Space-Track

STARLINK-32404, 61710 is a payload satellite owned by SpaceX/Seattle (US) in LEO that was launched on Wed, 30 Oct 2024 UTC via an FALCON 9 launch vehicle from the Air Force Eastern Test Range (AFETR). Payload-class satellites include a variety of spacecraft equipped with specific instruments for various scientific and technological missions. These include communications satellites like Starlink; space stations such as the ISS; scientific satellites like the Hubble; Earth observation satellites from companies like Planet Labs, Umbra, and HawkEye 360; GPS; miniature CubeSats for education and research; and military/defense satellites.

Loading next visibility...
Identifier
61710, 2024-196D
Orbit
LEO
Country
Flag of USUS
Related business
Manufacturer
SpaceX/Seattle
Mission
Operational Commercial Communications
Bus & Motor
STARLINK V2M, Unknown motor
Mass
730 kg wet, ~700 kg dry
Launch date (UTC)
2024-10-30 (1 year ago)
Launch vehicle
FALCON 9
Launch site
Air Force Eastern Test Range (AFETR)
Object type
Payload
Rocket body
Debris
Shape & HBR
Box + 2 Pan, 17.7 m
Radar Cross Section
33.884 m², Large (>1 m²)

Expand to show TLE details & history
Last TLE update: 8 hours ago

TLE from 8 hours ago
0 STARLINK-32404
1 61710U 24196D   25304.49714582 -.00001446  00000-0 -36709-4 0  9997
2 61710  53.1610 341.6402 0001312  86.2558 273.8593 15.30193952 57371
Epoch: 2025-10-31T11:55Z
TLE epoch observation values (Epoch: 2025-10-31T11:55:53.398Z)
Latitude
-0.00002°
Longitude
122.62696°
Altitude
476.073 km
Speed
7.629 km/s
True Right ascension
22h 46m 33s
True Declination
0° 00' 00"
Sunlit
Object was in full shadow at epoch
Visualization orbit readout
Latitude
Unknown
Longitude
Unknown
Altitude
Unknown
Speed
Unknown
Apparent Right ascension
Unknown
Apparent Declination
Unknown
Sunlit
N/A
Visualization observer readout
Local Sidereal Time
15:16:29
Azimuth
Unknown
Elevation
Unknown
Doppler factor
Unknown
Orbital elements
Apogee altitude
476.389 km
Perigee altitude
474.59 km
Semi-major axis
6,853.626 km
Eccentricity
0.00013
Inclination
53.161°
RAAN
341.6402°
Arg. of periapsis
86.2558°
True anomaly
273.8443°
Mean anomaly
273.8593°
Eccentric anomaly
273.8518°
Mean motion
3.82527 °/min
Orbital period
94.11 mins
BSTAR
-0.000036709
Loading maneuver chart data...
Computing Atmospheric mass density...
Loading historical data...
Loading historical data...
Loading historical data...
Loading historical data...
Loading historical data...
Loading historical data...
Loading historical data...

Documentation

Showing up to 5 results
|